OpenBCM V1.08-5-g2f4a (Linux)

Packet Radio Mailbox

IZ3LSV

[San Dona' di P. JN]

 Login: GUEST





  
LU9DCE > KEPS     22.02.18 17:13l 259 Lines 12853 Bytes #999 (0) @ WW
BID : 32528_LU9DCE
Read: GUEST
Subj: SAT TLE OF 22
Path: IZ3LSV<IR2UBX<EA2RCF<LU9DCE
Sent: 180222/1601Z @:LU9DCE.TOR.BA.ARG.SOAM #:32528 [TORTUGUITAS] FBB7.07
From: LU9DCE@LU9DCE.TOR.BA.ARG.SOAM
To  : KEPS@WW


            __    _  _  ___  ____   ___  ____    ____  ____  ____
           (  )  / )( \/ _ \(    \ / __)(  __)  (  _ \(  _ \/ ___)
           / (_/\) \/ (\__  )) D (( (__  ) _)    ) _ ( ) _ (\___ \
           \____/\____/(___/(____/ \___)(____)  (____/(____/(____/
               ESTACION DE PACKET RADIO - BUENOS AIRES (GF05OM)
                   BOLETINES INFORMATIVOS PROGRAMADOS (BIP)
                    LU9DCE@GMX.COM - RF 147070 @ 1200 BAUD
                           telnet lu9dce.dynu.com
             BBS port 6300 / NODE port 3694 / DXCLUSTER port 9000

+------------------------------------------------------------------------------+
OSCAR 7
1  7530U 74089B   18052.85810659 -.00000016 +00000-0 +17947-3 0  9990
2  7530 101.6717 021.9795 0011921 197.2551 216.6370 12.53631241979915
OSCAR 11 (UoSAT 2)
1 14781U 84021B   18052.89228309 +.00000066 +00000-0 +14270-4 0  9993
2 14781 097.6652 093.9303 0009987 100.1761 260.0580 14.82981761806354
OSCAR 19 (LUSAT)
1 20442U 90005G   18053.06480662  .00000004  00000-0  17723-4 0  9993
2 20442  98.6006 352.3289 0012633 126.6503 233.5844 14.32887132467402
KITSAT B
1 22825U 93061C   18053.40260923  .00000001  00000-0  18200-4 0  9997
2 22825  98.8491  27.5221 0007830 328.0503  32.0203 14.30022268273165
POSAT 1
1 22826U 93061D   18053.44597837  .00000002  00000-0  18454-4 0  9991
2 22826  98.8433  27.6183 0008191 316.6345  43.4191 14.30353194273356
RADIO ROSTO
1 23439U 94085A   18052.77756735 -.00000048 +00000-0 -14557-3 0  9999
2 23439 064.8158 175.4845 0161123 202.6249 272.4745 11.27566552953556
JAS 2
1 24278U 96046B   18052.65469062 -.00000010 +00000-0 +24243-4 0  9993
2 24278 098.5282 267.2556 0351128 050.7747 312.4012 13.53081634062366
TECHSAT 1B
1 25397U 98043D   18053.40141825  .00000001  00000-0  19342-4 0  9996
2 25397  98.6391 355.8085 0001652  36.9456 323.1836 14.23640133 19390
ISS (ZARYA)
1 25544U 98067A   18052.92989505 +.00002384 +00000-0 +43244-4 0  9991
2 25544 051.6417 233.2963 0003374 121.8105 357.7685 15.54130847100593
PCSAT
1 26931U 01043C   18052.71316498 -.00000024 +00000-0 +22531-4 0  9998
2 26931 067.0516 167.3671 0005905 282.0491 077.9948 14.30494591855961
SAUDISAT 1C
1 27607U 02058C   18052.51177224 -.00000012  00000-0  19014-4 0  9995
2 27607  64.5547  83.6043 0051453 356.0298   4.0388 14.75421264815890
CUTE-1
1 27844U 03031E   18052.92304392 +.00000044 +00000-0 +39421-4 0  9991
2 27844 098.6893 063.2676 0009519 351.6664 008.4354 14.22095538759773
CUBESAT XI 4
1 27848U 03031J   18052.99113756  .00000029  00000-0  33325-4 0  9994
2 27848  98.6981  63.6927 0009616   1.7721 358.3489 14.21701975759698
MOZHAYETS 4
1 27939U 03042A   18053.42839194  .00000094  00000-0  25378-4 0  9998
2 27939  97.9707 195.6548 0013751 147.9255 286.2674 14.66659181769991
CUBESAT XI 5
1 28895U 05043F   18052.39114287 +.00000149 +00000-0 +37378-4 0  9991
2 28895 097.8909 208.6514 0018120 077.0614 283.2611 14.63510793656705
CUTE-1.7+APD II
1 32785U 08021C   18052.86310755  .00000197  00000-0  27068-4 0  9991
2 32785  97.5529  70.5172 0014465  64.1709 296.0998 14.88064453532021
DELFI C3
1 32789U 08021G   18053.16012051  .00001424  00000-0  10240-3 0  9994
2 32789  97.5280 110.8167 0011582 336.5458  23.5239 15.05765532534473
SEEDS
1 32791U 08021J   18052.60183838 +.00000401 +00000-0 +46448-4 0  9991
2 32791 097.5447 075.3517 0014480 048.2209 312.0244 14.90471515532216
YUBELEINY
1 32953U 08025A   18053.42955086  .00000009  00000-0 -64291-5 0  9990
2 32953  82.4993  84.0517 0020389 100.1790 260.1590 12.43081792442510
PRISM (HITOMI)
1 33493U 09002B   18053.40390441  .00001237  00000-0  11548-3 0  9990
2 33493  98.1426 311.0237 0015296 342.6240  17.4444 14.96087967493181
KKS-1 (KISEKI)
1 33499U 09002H   18053.21942694  .00000117  00000-0  25335-4 0  9994
2 33499  98.3493 231.2797 0008123 302.7802  57.2623 14.75296273488228
SWISSCUBE
1 35932U 09051B   18052.99575926  .00000124  00000-0  39071-4 0  9996
2 35932  98.5264 201.5040 0007455 195.5127 164.5843 14.56122725446674
BEESAT
1 35933U 09051C   18052.89392225 +.00000108 +00000-0 +35279-4 0  9993
2 35933 098.5305 202.8726 0005387 206.8455 153.2464 14.56230757446688
ITUPSAT 1
1 35935U 09051E   18052.95245952 +.00000111 +00000-0 +36639-4 0  9991
2 35935 098.5417 203.1869 0007765 204.3635 155.7195 14.55412321446531
XIWANG-1 (HOPE-1)
1 36122U 09072B   18053.39696219 -.00000032  00000-0  26195-4 0  9997
2 36122 100.0834  73.3684 0007708  22.7381 337.4073 13.16343385393546
TISAT 1
1 36799U 10035E   18052.86921259 +.00000345 +00000-0 +41255-4 0  9994
2 36799 098.0878 186.1653 0011569 222.1894 137.8434 14.90699331412772
JUGNU
1 37839U 11058B   18053.21668782  .00000309  00000-0  22989-4 0  9998
2 37839  19.9627  14.4061 0019089  59.9879  65.7986 14.12609838329092
SRMSAT
1 37841U 11058D   18053.35846413  .00000316  00000-0  28409-4 0  9996
2 37841  19.9731  60.3792 0011678 310.2192 198.7197 14.10598859328659
M-CUBED/EXP-1 PRIME
1 37855U 11061F   18052.93939315 +.00001807 +00000-0 +10009-3 0  9994
2 37855 101.7260 056.4910 0177710 063.2391 298.6881 15.04073014343859
HORYU 2
1 38340U 12025D   18052.99601807  .00000182  00000-0  34789-4 0  9990
2 38340  98.3741  70.7177 0010925 212.3515 147.7024 14.75501561310124
STRAND 1
1 39090U 13009E   18052.57474748 +.00000006 +00000-0 +17519-4 0  9999
2 39090 098.5321 260.3840 0008120 282.5578 077.4699 14.35011744261227
SOMP
1 39134U 13015E   18052.85370147 +.00001270 +00000-0 +69969-4 0  9994
2 39134 064.8636 139.8997 0023874 226.3916 133.5230 15.18826010267008
BEESAT 3
1 39135U 13015F   18052.88661202 +.00001057 +00000-0 +63769-4 0  9998
2 39135 064.8701 151.6740 0029649 247.7089 112.0892 15.16407761266779
BEESAT 2
1 39136U 13015G   18052.61835483 +.00001309 +00000-0 +77627-4 0  9992
2 39136 064.8700 155.0140 0029913 248.2723 111.5217 15.15885265266689
CUBEBUG 1
1 39153U 13018D   18053.26773680  .00000186  00000-0  31378-4 0  9991
2 39153  97.9785 149.2065 0016015 322.1361  37.8724 14.80342770260584
ZACUBE
1 39417U 13066B   18053.04447925  .00000187  00000-0  29983-4 0  9993
2 39417  97.6008  87.7543 0059496 170.9145 189.3160 14.80878131229754
TRITON 1
1 39427U 13066M   18052.94330538 +.00000157 +00000-0 +33486-4 0  9993
2 39427 097.6382 056.5354 0112687 268.6012 090.2283 14.67613464227489
GOMX 1
1 39430U 13066Q   18053.43426501  .00000241  00000-0  52972-4 0  9993
2 39430  97.6864  38.6516 0151064 333.3296  26.0190 14.59027283226421
HUMSAT D
1 39433U 13066T   18053.14198363  .00000235  00000-0  28594-4 0  9992
2 39433  97.6200 113.4621 0032536 105.3012 255.1807 14.91753163231270
50 SAT
1 39436U 13066W   18053.40386055  .00060494  00000-0  74021-3 0  9999
2 39436  97.7115 180.3733 0006359 255.5572 104.4979 15.60183705235321
CUBEBUG 2
1 39440U 13066AA  18052.93415964 +.00000173 +00000-0 +31254-4 0  9993
2 39440 097.6092 074.9761 0079929 208.8869 150.7905 14.75614629227728
FUNCUBE 1
1 39444U 13066AE  18053.10036459  .00000222  00000-0  33881-4 0  9998
2 39444  97.6020  89.1859 0058789 166.5840 193.6953 14.81643388228618
UWE-3
1 39446U 13066AG  18052.95124903 +.00000180 +00000-0 +30702-4 0  9996
2 39446 097.6037 080.9685 0070103 190.3809 169.5960 14.78147504227500
SPROUT
1 39770U 14029E   18053.30696517  .00000586  00000-0  72159-4 0  9993
2 39770  97.8726 155.3653 0008167 218.2546 141.8093 14.86674392203297
UNISAT 6
1 40012U 14033C   18052.72782013 +.00000149 +00000-0 +29914-4 0  9997
2 40012 097.8255 293.1615 0057715 210.0682 149.7210 14.73766357197691
DUCHIFAT 1
1 40021U 14033M   18053.17578328  .00000452  00000-0  52456-4 0  9993
2 40021  97.9177 331.6887 0012485 191.7806 168.3121 14.90202850199829
QB50P1
1 40025U 14033R   18053.21011895  .00000230  00000-0  30708-4 0  9993
2 40025  97.9087 328.8298 0011931 197.2093 162.8720 14.88639771199682
CHUBUSAT 1
1 40300U 14070C   18053.32592800  .00000944  00000-0  45015-4 0  9991
2 40300  97.3733 133.4413 0019025 309.3784 136.4619 15.21395067182810
NUDT-PHONESAT
1 40900U 15049B   18053.18153111  .00002056  00000-0  96161-4 0  9990
2 40900  97.4437  62.7909 0015314  74.3152 285.9772 15.20809027134437
ZDPS 2A
1 40901U 15049C   18053.03948096  .00000879  00000-0  47953-4 0  9995
2 40901  97.4599  61.1974 0015458  79.4521 280.8452 15.16864300134201
ZDPS 2B
1 40902U 15049D   18053.39374814  .00000797  00000-0  44007-4 0  9992
2 40902  97.4489  59.7609 0015508  75.8218 284.4737 15.16670992134249
XW-2A
1 40903U 15049E   18053.44698196  .00001723  00000-0  45132-4 0  9991
2 40903  97.3984  87.1049 0016145  85.1390 275.1699 15.40025314136149
KAITUO 1A
1 40904U 15049F   18053.35269681  .00000802  00000-0  46475-4 0  9993
2 40904  97.4580  59.0960 0016755  76.6114  36.0365 15.14891065134113
OBJECT G
1 40905U 15049G   18053.40761594  .00000393  00000-0  25276-4 0  9991
2 40905  97.4574  57.4185 0017434  70.1224 290.1885 15.13862628134059
XW-2C
1 40906U 15049H   18053.40246644  .00000623  00000-0  36790-4 0  9995
2 40906  97.4595  59.0154 0016689  70.1150 290.1879 15.15023499134113
XW-2D
1 40907U 15049J   18053.43194016  .00000652  00000-0  38159-4 0  9997
2 40907  97.4568  58.7563 0016029  68.2580 292.0357 15.15162390134124
LILACSAT 2
1 40908U 15049K   18053.03821792  .00000361  00000-0  23785-4 0  9998
2 40908  97.4676  57.8739 0017653  69.8404 290.4724 15.13411390133951
XW-2F
1 40910U 15049M   18053.40179448  .00001023  00000-0  56131-4 0  9993
2 40910  97.4576  59.8355 0016736  64.9453 295.3515 15.16272594134069
XW-2B
1 40911U 15049N   18053.44536797  .00000659  00000-0  38593-4 0  9998
2 40911  97.4606  59.2622 0015938  68.7257 291.5676 15.15111108134026
